This demonstration page uses our WeatherBlox Daily Observations layout. Learn more.

Left ArrowRight Arrow

Hourly Observations for October 22, 2021

Temp ( °F °C ) Dew Point ( °F °C ) Humidity (%) Winds ( mph kmh ) Pressure ( in mb ) Visibility ( mi km ) Precip ( " mm )
12:15 am 00:15 Clear 42 5.7 32 undefined 67 67 S 3 6 30.19 1022 10 16 N/A
12:35 am 00:35 Clear 42 5.8 32 undefined 67 67 S 3 6 30.19 1022 10 16 N/A
12:55 am 00:55 Clear 42 5.6 32 -0.1 67 67 S 5 7 30.19 1022 10 16 N/A
1:15 am 01:15 Clear 42 5.8 32 -0.2 66 66 S 5 7 30.18 1022 10 16 N/A
1:35 am 01:35 Clear 41 5.2 32 undefined 69 69 SSE 7 11 30.18 1022 10 16 N/A
1:55 am 01:55 Clear 41 5 32 0.1 71 71 S 5 7 30.18 1022 10 16 N/A
2:15 am 02:15 Clear 41 4.8 32 0.2 72 72 S 5 7 30.18 1022 10 16 N/A
2:35 am 02:35 Clear 40 4.5 32 0.1 73 73 S 3 6 30.17 1022 10 16 N/A
2:55 am 02:55 Clear 40 4.5 33 0.3 74 74 S 5 7 30.17 1022 10 16 N/A
3:15 am 03:15 Clear 39 4 33 0.3 77 77 S 5 7 30.16 1021 10 16 N/A
3:35 am 03:35 Clear 38 3.2 32 0.1 80 80 S 3 6 30.15 1021 10 16 N/A
3:55 am 03:55 Clear 38 3.5 33 0.3 80 80 N N/A 30.15 1021 10 16 N/A
4:15 am 04:15 Clear 38 3.2 32 undefined 80 80 SSE 5 7 30.15 1021 10 16 N/A
4:35 am 04:35 Clear 38 3.6 33 0.6 81 81 SSE 5 7 30.14 1021 10 16 N/A
4:55 am 04:55 Clear 39 4 34 1 81 81 N N/A 30.14 1021 10 16 N/A
5:15 am 05:15 Clear 38 3.1 33 0.5 83 83 N N/A 30.15 1021 10 16 N/A
5:35 am 05:35 Clear 37 2.9 34 0.9 87 87 S 3 6 30.15 1021 10 16 N/A
5:55 am 05:55 Clear 37 2.7 33 0.4 85 85 N N/A 30.15 1021 10 16 N/A
6:15 am 06:15 Clear 37 2.8 33 0.7 86 86 SSE 5 7 30.14 1021 10 16 N/A
6:35 am 06:35 Clear 37 3 34 1 87 87 S 6 9 30.13 1020 10 16 N/A
6:55 am 06:55 Clear 39 3.9 35 1.5 85 85 SSE 7 11 30.12 1020 10 16 N/A
7:15 am 07:15 Clear 39 4 35 1.5 84 84 S 6 9 30.11 1020 10 16 N/A
7:35 am 07:35 Clear 38 3.5 34 1.1 84 84 S 5 7 30.10 1019 10 16 N/A
7:55 am 07:55 Clear 38 3.2 34 1.2 87 87 S 5 7 30.10 1019 10 16 N/A
8:15 am 08:15 Sunny 38 3.5 35 1.5 87 87 N N/A 30.10 1019 10 16 N/A
8:35 am 08:35 Sunny 39 4 35 1.8 86 86 SSW 5 7 30.09 1019 10 16 N/A
8:55 am 08:55 Sunny 41 4.9 36 2.1 82 82 SSW 6 9 30.08 1019 10 16 N/A
9:15 am 09:15 Sunny 43 6.1 37 2.6 79 79 SSW 7 11 30.07 1018 10 16 N/A
9:35 am 09:35 Sunny 45 7.3 38 3.5 77 77 SSW 10 17 30.07 1018 10 16 N/A
9:55 am 09:55 Sunny 47 8.3 39 4 75 75 SSW 7 11 30.05 1018 10 16 N/A
10:15 am 10:15 Sunny 49 9.6 40 4.7 72 72 SSW 6 9 30.04 1017 10 16 N/A
10:35 am 10:35 Sunny 51 10.6 41 4.8 68 68 SW 9 15 30.02 1017 10 16 N/A
10:55 am 10:55 Sunny 53 11.5 40 4.3 62 62 SW 14 22 30.01 1016 10 16 N/A
11:15 am 11:15 Sunny 54 12 40 4.2 59 59 SW 10 17 30.00 1016 10 16 N/A
11:35 am 11:35 Sunny 56 13.6 39 4 53 53 SW 8 13 29.97 1015 10 16 N/A
11:55 am 11:55 Sunny 60 15.6 39 4.1 47 47 SW 8 13 29.94 1014 10 16 N/A
12:15 pm 12:15 Sunny 63 17.3 37 2.8 38 38 SW 8 13 29.92 1013 10 16 N/A
12:35 pm 12:35 Sunny 65 18.6 36 2.2 34 34 SW 12 19 29.90 1012 10 16 N/A
12:55 pm 12:55 Sunny 68 19.9 35 1.8 30 30 SW 10 17 29.88 1012 10 16 N/A
1:15 pm 13:15 Sunny 68 20 35 1.7 30 30 WSW 10 17 29.88 1012 10 16 N/A
1:35 pm 13:35 Sunny 68 20.2 35 1.7 29 29 W 10 17 29.87 1011 10 16 N/A
1:55 pm 13:55 Sunny 69 20.7 35 1.8 29 29 W 10 17 29.85 1011 10 16 N/A
2:15 pm 14:15 Sunny 71 21.5 34 1.2 26 26 W 9 15 29.84 1010 10 16 N/A
2:35 pm 14:35 Sunny 72 22.1 35 1.4 26 26 W 7 11 29.82 1010 10 16 N/A
2:55 pm 14:55 Sunny 72 22.2 35 1.4 25 25 WNW 5 7 29.82 1010 10 16 N/A
3:15 pm 15:15 Sunny 72 22.4 36 2 26 26 WNW 5 7 29.81 1009 10 16 N/A
3:35 pm 15:35 Sunny 73 23 36 2.1 25 25 W 3 6 29.79 1009 10 16 N/A
3:55 pm 15:55 Sunny 73 23 35 1.9 25 25 N N/A 29.79 1009 10 16 N/A
4:15 pm 16:15 Sunny 74 23.1 35 1.9 25 25 N N/A 29.79 1009 10 16 N/A
4:35 pm 16:35 Sunny 74 23.3 35 1.5 24 24 N N/A 29.78 1008 10 16 N/A
4:55 pm 16:55 Sunny 73 23 35 1.7 25 25 N N/A 29.78 1009 10 16 N/A
5:15 pm 17:15 Sunny 73 22.8 36 2.4 26 26 N N/A 29.78 1009 10 16 N/A
5:35 pm 17:35 Sunny 73 22.8 37 2.5 26 26 NNE 3 6 29.78 1009 10 16 N/A
5:55 pm 17:55 Sunny 72 22 38 3.4 30 30 N N/A 29.79 1009 10 16 N/A
6:15 pm 18:15 Sunny 69 20.8 38 3.6 32 32 NE 5 7 29.79 1009 10 16 N/A
6:35 pm 18:35 Sunny 64 17.9 38 3.4 38 38 NE 6 9 29.82 1010 10 16 N/A
6:55 pm 18:55 Clear 60 15.3 38 3.1 44 44 NE 6 9 29.85 1011 10 16 N/A
7:15 pm 19:15 Clear 57 14.1 38 3.4 49 49 NE 8 13 29.86 1011 7 11 N/A
7:35 pm 19:35 Clear 55 12.6 38 3.5 54 54 NE 7 11 29.88 1012 7 11 N/A
7:55 pm 19:55 Clear 55 12.6 38 3.5 54 54 NE 7 11 29.87 1012 7 11 N/A
8:15 pm 20:15 Clear 57 14 40 4.7 54 54 NE 10 17 29.87 1011 10 16 N/A
8:35 pm 20:35 Clear 56 13.5 41 5 57 57 NE 10 17 29.87 1012 10 16 N/A
8:55 pm 20:55 Clear 55 12.8 42 5.3 61 61 ENE 13 20 29.88 1012 10 16 N/A
9:15 pm 21:15 Clear 54 12 42 5.3 64 64 ENE 14 22 29.89 1012 10 16 N/A
9:35 pm 21:35 Clear 52 11.2 42 5.5 68 68 ENE 14 22 29.89 1012 10 16 N/A
9:55 pm 21:55 Clear 51 10.5 41 5.2 70 70 ENE 13 20 29.91 1013 10 16 N/A
10:15 pm 22:15 Clear 50 9.9 41 5 72 72 E 15 24 29.91 1013 10 16 N/A
10:35 pm 22:35 Clear 49 9.5 40 4.6 72 72 ENE 12 19 29.91 1013 10 16 N/A
10:55 pm 22:55 Clear 48 8.7 40 4.4 75 75 E 10 17 29.92 1013 10 16 N/A
11:15 pm 23:15 Clear 47 8.4 40 4.3 76 76 ENE 12 19 29.93 1013 10 16 N/A
11:35 pm 23:35 Clear 46 7.8 39 4 77 77 E 9 15 29.93 1014 10 16 N/A
11:55 pm 23:55 Clear 45 7.2 39 3.8 79 79 ENE 12 19 29.93 1013 10 16 N/A

Powered by AerisWeather